Helicity
77 66 64 72 71 62 69 84 87 91 93 89 75 71 74 79 82 73 86 139 167 158 144 168 148 181 179 182 182 186 216 242 242 219 177 165 175 178 180 151 122 89 76
77 95 107 108 112 106 102 98 94 88 83 72 75 75 78 85 86 107 119 131 178 192 193 195 207 211 192 187 190 184 177 187 184 169 165 165 174 189 187 168 147 134 125
123 115 88 107 102 101 99 97 94 89 87 85 85 84 94 100 99 141 149 164 169 201 194 179 179 181 180 178 173 161 150 151 168 179 170 163 162 157 160 169 146 135 121
146 121 106 113 101 100 84 76 76 75 72 62 62 76 84 84 120 171 173 167 159 148 156 176 176 165 164 162 154 141 143 151 154 152 140 130 129 124 116 100 90 87 95
168 115 135 116 109 100 92 69 67 56 38 56 64 79 81 96 149 188 186 160 159 141 109 137 138 128 138 134 126 134 132 142 144 141 138 144 145 132 117 121 131 136 130
177 159 165 144 117 97 97 75 87 83 58 41 46 61 74 96 134 164 146 128 140 123 85 86 40 49 111 119 122 146 140 149 144 137 138 136 127 134 149 152 148 145 135
178 176 167 138 106 88 71 81 50 73 63 56 34 66 86 109 119 135 112 89 127 82 63 57 38 65 75 107 111 134 133 134 141 146 142 150 181 173 160 164 154 153 161
182 189 152 125 102 79 84 73 67 35 30 26 12 -3 38 64 132 111 73 114 102 59 58 76 76 84 94 104 90 122 114 132 140 144 158 169 160 158 160 185 206 207 190
208 174 144 114 99 69 55 49 43 52 50 43 48 35 22 39 60 57 117 81 111 61 59 63 57 54 67 86 91 96 91 123 129 151 171 171 183 170 201 209 200 186 196
200 164 138 116 100 74 70 52 55 41 31 47 51 82 77 88 66 70 75 103 71 69 49 61 40 61 64 70 63 78 104 111 135 160 161 182 170 215 206 189 183 184 163
193 155 130 118 105 85 80 84 84 80 58 59 63 73 90 105 108 142 138 102 65 58 41 39 88 30 41 57 71 63 35 82 105 132 149 162 202 198 205 200 178 252 339
169 148 135 120 109 103 105 102 97 98 89 93 91 90 82 91 102 100 121 103 83 47 103 74 62 80 84 93 73 75 97 120 127 133 161 168 168 169 171 179 190 207 223
147 140 128 126 117 124 125 116 108 101 100 105 99 97 101 107 122 130 130 102 98 85 36 116 31 60 45 74 107 111 133 150 165 164 157 152 158 165 172 173 198 207 199
138 120 130 140 146 138 133 125 107 106 107 99 98 101 113 118 133 144 146 117 80 108 94 91 78 20 74 104 54 40 107 60 96 130 129 136 148 154 164 173 171 164 189
133 138 149 159 154 147 141 125 115 106 103 101 104 109 131 123 137 145 165 179 164 127 103 128 114 135 113 98 73 84 112 67 43 57 53 71 96 113 131 131 163 153 158
146 152 158 156 145 144 137 124 111 107 117 114 115 117 121 143 154 178 202 206 214 207 267 216 169 147 126 137 106 89 129 47 34 22 24 20 38 58 76 76 117 109 123
149 151 150 150 149 141 130 124 114 105 118 113 116 118 123 147 185 202 213 212 205 202 235 239 202 169 158 132 150 130 109 99 112 23 35 39 36 29 19 24 39 52 64
149 148 152 157 143 131 126 125 116 110 110 117 113 129 137 158 173 183 191 184 201 204 243 226 202 172 165 155 141 106 113 144 187 125 42 23 27 22 19 17 20 25 33
155 155 161 147 136 130 123 113 103 102 104 111 117 129 142 163 162 158 170 194 198 189 204 213 213 195 215 157 140 146 124 158 180 84 60 62 42 36 14 0 -4 -28 -39
148 159 139 134 131 118 103 96 101 98 106 118 134 149 154 145 134 146 165 180 203 205 186 192 214 200 188 166 137 145 122 158 175 159 174 138 66 50 32 6 -18 -29 -40
154 135 134 132 124 104 94 89 92 101 118 137 136 134 131 121 112 151 190 199 175 170 174 188 205 143 130 102 127 158 121 131 211 225 230 231 213 224 216 112 70 24 -10
143 132 137 124 104 93 73 78 97 126 139 138 128 128 169 128 150 118 115 98 101 97 138 135 134 144 145 155 108 123 181 195 235 190 227 293 241 254 243 240 130 55 28
133 137 117 95 94 90 70 82 98 145 146 129 133 165 177 176 137 160 105 65 64 79 83 115 133 144 72 105 119 138 163 205 236 257 196 280 244 276 239 217 99 51 35
132 102 91 95 90 86 86 97 100 138 126 142 167 167 166 152 132 84 102 128 106 95 119 121 112 111 110 96 105 133 140 150 228 244 201 272 257 279 238 244 167 101 43
103 99 88 81 92 86 98 104 93 118 148 157 163 145 135 120 64 25 103 104 93 102 87 41 48 43 50 45 58 105 123 110 139 195 202 227 280 282 308 401 283 181 145
101 88 85 83 77 108 87 72 84 143 149 161 150 146 98 84 27 42 85 86 92 96 95 84 75 73 73 103 54 91 113 128 139 178 210 250 265 263 325 435 342 340 278
Wind_Speed
29 31 33 34 34 34 36 38 40 43 46 50 51 52 53 53 54 53 51 53 53 54 54 55 56 55 57 58 59 60 60 59 58 60 60 60 60 60 61 63 65 66 67
23 27 31 35 37 37 38 40 43 46 48 52 55 55 54 55 56 51 52 51 53 53 54 54 56 57 60 61 61 62 63 64 65 65 64 65 66 67 67 69 69 70 71
23 26 30 35 37 39 40 43 45 47 52 55 57 57 56 59 52 49 50 49 49 53 53 54 58 61 64 65 67 69 69 68 66 67 69 70 72 73 74 75 75 75 75
23 25 31 36 38 41 43 47 51 52 58 62 64 61 59 58 46 49 46 48 49 52 54 58 63 67 70 72 73 73 74 72 73 74 75 76 76 78 80 81 82 83 83
24 27 34 35 38 42 47 50 55 57 65 70 68 64 64 54 41 46 48 48 52 56 56 62 70 71 75 76 76 77 77 75 78 79 79 80 81 83 83 82 82 84 85
26 30 32 35 38 43 51 54 56 59 62 69 62 62 58 49 37 45 52 54 55 60 63 68 75 77 79 80 77 81 80 79 81 81 82 84 83 83 82 83 85 86 86
26 28 30 35 40 47 52 57 55 60 64 69 60 64 53 49 47 49 56 57 60 67 66 73 80 81 81 81 77 86 82 82 83 85 87 84 86 89 91 90 90 91 92
25 27 30 36 42 48 53 58 60 58 59 66 65 59 64 59 52 61 67 59 67 72 79 85 85 83 80 78 79 86 82 85 88 88 86 91 94 95 93 94 97 99 100
24 27 33 38 44 49 54 57 59 60 63 62 61 61 66 65 80 60 68 64 73 78 81 83 82 78 80 83 85 87 84 93 93 94 99 100 101 99 99 104 106 108 106
25 30 35 40 46 50 54 56 57 58 58 64 59 62 58 62 76 85 66 80 68 89 84 83 80 83 84 85 86 90 95 96 99 102 105 105 104 107 111 112 111 110 111
27 32 37 43 48 51 54 56 58 60 59 60 63 64 64 67 65 74 98 89 90 85 82 81 87 84 86 88 90 94 96 104 105 110 108 109 112 115 115 116 114 111 115
28 35 40 45 48 52 55 57 58 59 60 61 62 64 68 70 75 79 91 101 102 94 95 88 86 89 91 93 94 102 105 108 112 113 114 116 117 117 118 118 116 115 115
31 38 42 46 50 53 56 58 59 61 61 64 65 68 65 67 70 77 87 100 106 106 90 91 87 92 93 96 102 108 109 113 115 116 117 118 119 119 118 118 118 117 118
32 37 43 47 51 54 58 60 60 62 64 67 68 68 66 71 70 74 83 99 119 103 108 103 95 90 94 105 103 107 107 109 112 114 115 116 117 118 117 118 118 120 119
33 39 44 50 54 57 60 62 64 67 68 67 70 69 69 73 69 73 78 84 97 124 136 112 103 108 106 103 102 105 105 106 108 110 111 113 113 114 116 115 113 112 117
36 42 48 53 57 59 62 64 67 68 68 72 73 73 74 75 75 77 80 82 86 101 123 120 120 113 109 107 104 104 101 102 102 102 103 103 104 109 111 110 123 129 128
39 45 51 55 59 62 64 68 69 68 75 76 76 77 80 81 83 83 83 86 93 95 112 125 116 115 116 112 105 98 94 93 91 89 91 96 104 102 102 105 110 113 113
42 48 53 58 62 64 67 69 72 74 76 79 80 83 87 86 87 86 88 93 94 94 102 120 120 118 110 105 102 97 89 85 84 82 85 85 83 80 85 80 87 105 108
46 51 56 61 64 67 70 71 72 74 77 79 82 86 89 90 93 91 92 95 96 96 99 106 113 103 100 94 91 91 91 85 76 77 79 74 66 66 59 56 53 61 87
49 54 58 62 65 69 71 72 74 77 79 80 83 87 88 89 95 96 96 98 100 104 99 97 97 93 85 86 89 94 92 83 78 66 45 44 45 47 52 55 62 69 85
52 55 60 64 67 70 71 76 76 78 82 84 86 87 87 86 89 92 99 103 100 97 94 92 88 91 87 89 85 75 46 45 61 59 48 52 53 53 51 43 43 48 53
55 58 63 67 71 71 75 76 79 81 81 85 89 88 87 88 90 93 96 93 89 91 87 90 85 78 74 73 42 41 49 61 60 70 58 46 54 51 48 48 45 41 44
57 61 65 68 73 75 75 79 80 80 82 84 87 93 95 91 95 92 89 86 81 77 76 72 60 57 47 44 40 52 51 54 52 52 49 48 58 53 51 52 42 43 47
60 63 67 72 74 75 77 81 83 81 83 85 88 92 93 96 91 92 92 82 81 74 66 54 48 37 33 40 46 42 41 42 42 49 49 51 56 51 49 40 41 48 48
60 66 70 73 76 77 80 84 85 85 88 91 87 86 89 91 93 92 87 83 79 71 60 50 39 34 39 37 38 40 39 40 44 49 50 49 49 42 40 36 28 29 32
64 68 71 72 75 79 82 83 86 87 93 94 89 88 85 90 89 87 83 80 76 70 64 66 65 54 46 39 42 46 42 40 40 44 50 51 44 42 52 24 21 21 21
Wind_Direction
343 345 349 352 355 357 359 357 352 348 344 341 340 339 339 340 339 339 340 338 338 337 336 335 334 333 332 330 328 326 324 322 321 318 316 314 312 310 308 305 302 299 297
353 353 354 352 351 354 356 353 349 346 345 340 337 337 338 337 336 339 338 339 339 339 337 337 335 332 329 327 326 324 322 319 317 315 313 312 309 307 305 303 301 300 298
354 357 355 351 351 351 351 349 347 345 342 340 339 338 338 336 338 340 340 341 341 341 340 338 335 332 329 326 323 321 319 318 317 315 312 309 306 305 303 301 300 298 297
354 356 353 348 350 348 346 345 342 342 339 337 335 336 336 336 341 341 344 343 343 341 339 337 333 329 326 324 321 320 318 316 314 313 310 308 306 304 302 299 297 295 294
350 351 350 352 352 347 344 343 341 340 335 332 332 333 333 336 341 344 344 344 341 338 338 335 331 329 326 323 321 320 317 316 314 312 310 308 306 304 301 299 298 296 294
349 349 354 353 350 347 344 344 344 344 342 337 339 337 338 341 344 340 338 338 337 336 335 332 330 328 326 323 321 320 317 316 314 312 310 308 306 305 303 301 298 296 295
351 356 359 355 351 347 347 346 347 344 343 342 343 340 343 344 336 334 336 334 332 332 333 331 329 327 325 324 322 320 318 316 314 312 309 308 306 303 301 299 297 296 294
355 1 3 356 351 351 350 349 348 346 347 347 342 341 335 337 339 331 331 332 328 329 327 327 327 326 325 324 322 320 318 316 314 312 310 307 305 303 300 298 296 294 292
358 2 360 356 354 353 350 350 349 348 344 345 347 343 335 330 326 331 329 330 329 327 326 326 326 326 324 322 320 318 316 314 312 310 308 306 304 301 299 297 295 293 291
357 356 357 356 354 353 351 350 350 349 347 343 344 343 341 334 329 324 329 325 329 324 325 326 325 324 323 321 320 318 315 313 311 309 307 305 303 301 299 297 295 292 290
353 355 355 354 353 353 351 350 349 348 347 344 341 340 338 335 333 327 322 324 324 326 326 326 324 323 322 320 319 317 315 312 310 308 306 304 302 300 298 296 294 292 291
350 352 353 353 353 351 350 349 348 346 345 343 342 339 336 334 331 328 324 323 322 325 324 323 324 323 323 321 319 317 314 312 310 308 306 304 302 300 298 295 294 292 290
343 346 351 350 350 350 349 347 346 344 343 341 339 337 337 335 333 330 326 323 322 323 325 324 325 324 323 322 320 317 315 313 310 308 306 304 302 300 298 295 293 292 290
345 348 349 349 349 348 346 346 344 343 341 339 338 337 336 334 332 331 329 326 322 322 322 322 325 325 325 321 319 318 316 314 312 310 307 305 303 300 298 295 293 292 291
348 348 348 347 346 345 344 344 342 340 339 339 338 336 334 333 332 330 329 328 325 321 319 323 324 324 323 322 320 318 316 314 313 312 309 308 305 302 299 295 294 292 290
348 346 346 344 344 344 343 342 340 340 340 339 338 336 334 333 330 329 328 326 325 321 317 321 321 322 323 321 320 319 318 316 314 313 312 310 308 306 302 297 295 292 289
346 344 343 343 343 342 341 340 341 341 338 337 337 336 333 332 330 329 327 325 323 321 317 318 321 322 321 321 321 321 320 319 318 317 315 312 310 308 306 303 299 295 292
344 343 343 342 341 341 341 341 340 339 338 337 336 335 333 333 331 330 328 325 324 322 320 319 322 323 323 324 323 323 324 323 320 319 319 317 315 313 312 309 306 298 292
343 343 342 341 341 341 341 341 340 339 338 337 336 335 335 334 331 331 329 327 326 325 324 321 321 324 324 327 327 326 325 326 326 324 322 319 318 315 307 300 288 269 262
342 341 342 342 342 341 341 340 339 338 338 338 338 337 336 335 332 331 330 329 329 327 326 325 324 326 332 331 330 328 329 330 330 331 316 299 301 292 285 278 270 264 262
341 342 342 342 342 341 341 339 339 338 338 338 338 337 337 336 335 334 332 331 330 329 328 328 332 330 332 333 334 336 310 312 337 334 325 329 329 325 320 301 292 274 266
341 341 341 341 340 341 340 340 339 338 339 338 337 338 337 337 336 334 333 332 332 331 333 332 332 333 335 337 308 311 333 335 334 340 341 319 331 325 323 320 311 289 274
341 341 341 341 340 340 340 339 339 339 339 339 338 337 336 337 336 335 333 333 333 335 335 335 335 335 298 295 315 335 333 336 330 330 330 313 336 327 327 324 303 281 271
341 341 341 340 340 341 341 340 340 340 339 338 338 337 336 336 337 336 335 337 337 338 340 341 336 316 319 327 332 331 315 308 323 334 339 324 335 325 328 319 285 272 268
342 341 341 341 341 341 341 341 340 340 339 338 339 339 339 338 337 338 339 339 339 341 344 342 339 299 306 327 333 337 332 322 314 336 341 336 338 321 322 298 293 282 275
341 341 342 343 342 342 342 342 342 341 339 340 341 341 340 339 339 340 341 341 340 343 345 345 345 348 348 345 345 347 340 330 324 331 353 350 339 348 359 344 347 306 292